Current Version              Previous Version:    01  02  03  04  05  06  07  08  09  10  11  12  13  14  15  16  17  18  19  20  21  22  23  24  25  26  27  28  29  30  
   31  32  33  34  35  36  37  38  39  40  41  42  43  44  45  46  47  48  49  50  51  52  53  54  55  56  57  58  59  60  

[Printable]
703
ASUS44 KLUB 200910
RWRTX
WEST TEXAS WEATHER ROUNDUP
NATIONAL WEATHER SERVICE LUBBOCK TX
400 AM CDT MON OCT 20 2014

NOTE: "FAIR" INDICATES FEW OR NO CLOUDS BELOW 12,000 FEET WITH NO
SIGNIFICANT WEATHER AND/OR OBSTRUCTIONS TO VISIBILITY.

TXZ004-006>008-010-012-014-016-OKZ002-201000-
TEXAS PANHANDLE/OKLAHOMA PANHANDLE

CITY           SKY/WX    TMP DP  RH WIND       PRES   REMARKS
AMARILLO       CLEAR     55  54  96 SW9       30.09S FOG
BORGER         CLEAR     58  55  90 CALM      30.06F
CANADIAN       CLEAR     56  55  95 CALM      30.04S
DALHART        CLEAR     48  45  89 SW7       30.10F
DUMAS          CLEAR     55  53  94 SW10      30.08S
GUYMON         CLEAR     49  46  90 SW8       30.06R
HEREFORD       CLEAR     51  51  99 SW7       30.11F FOG
PAMPA          CLEAR     59  56  92 SW10      30.07F
PERRYTON       CLEAR     56  54  91 W8        30.05S
$$

TXZ026-029-035-045-048-201000-
SOUTHERN PANHANDLE/SOUTH PLAINS/ROLLING PLAINS

CITY           SKY/WX    TMP DP  RH WIND       PRES   REMARKS
CHILDRESS      CLEAR     59  56  89 S5        30.05F
SEMINOLE       PTCLDY    55  53  94 CALM      30.10S
LUBBOCK        PTCLDY    56  53  90 CALM      30.09R
PLAINVIEW      FOG       50  49  97 CALM      30.08S VSB 1/2
SNYDER         PTCLDY    60  56  88 SE7       30.07S
$$

TXZ052-054-060>062-072-078-127-140-154-169-201000-
PERMIAN BASIN/CONCHO VALLEY/BIG COUNTRY/EDWARDS PLATEAU

CITY           SKY/WX    TMP DP  RH WIND       PRES   REMARKS
ABILENE        MOCLDY    64  59  83 S8        30.05F
BIG SPRING     PTCLDY    61  56  84 SE7       30.08S
BRADY          CLEAR     61  61 100 SE5       30.04F
BROWNWOOD      PTCLDY    59  57  94 CALM      30.05F FOG
JUNCTION       CLEAR     58  55  90 CALM      30.05S
MIDLAND        MOCLDY    60  56  86 E5        30.06S
ODESSA         MOCLDY    60  56  86 E5        30.07R
SAN ANGELO     PTCLDY    60  55  83 E6        30.04F
SONORA         CLEAR     63  54  72 CALM      30.08F
SWEETWATER     MOCLDY    64  58  83 S9        30.09S
WINK           CLOUDY    62  57  83 E5        30.04R
$$

TXZ055-058-074-075-080-082-201000-
FAR WEST/SOUTHWEST MOUNTAINS/TRANS PECOS

CITY           SKY/WX    TMP DP  RH WIND       PRES   REMARKS
ALPINE         MOCLDY    61  53  75 SW10      30.16R
DRYDEN           N/A     64  62  93 NE7       29.99S
EL PASO        MOCLDY    62  53  72 NW6       30.07F
FORT STOCKTON  MOCLDY    64  56  75 S6        30.04S
GUADALUPE PASS CLOUDY    57  54  89 N3        30.15F
MARFA          CLOUDY    57  54  88 CALM      30.14S
PECOS          CLOUDY    61  56  84 E7        30.03S
PRESIDIO       CLOUDY    67  58  72 MISG      30.01F
$$

TXZ014-016-019-021>030-083-201000
TEXAS TECH WEST TEXAS MESONET/TEXAS PANHANDLE/NORTHERN SOUTH PLAINS

CITY           SKY/WX    TMP DP  RH WIND       PRES   REMARKS
ABERNATHY 5ENE   N/A     52  51  96 CALM      30.10S
AMARILLO 9NNE    N/A     60  56  89 SW7       30.08S
AMARILLO 7SSE    N/A     49  49  99 W6        30.10F
AMHERST 1NE      N/A     50  50  99 SW2       30.10S
BOOTLEG 11WNW    N/A     53  52  96 SW9       30.14F
CANADIAN 6E      N/A     55  54  97 E1        30.03S
CAPROCK CYN SP   N/A     61  57  86 SW6       30.07S
CHILDRESS 2NNE   N/A     60  56  88 S6        30.04S
CLARENDON 2WSW   N/A     57  54  90 SW3       30.07S
CLAUDE 12SW      N/A     60  57  89 SW7       30.09F
DIMMITT 2NE      N/A     55  54  95 SW6       30.10S
FLOYDADA 2NNE    N/A     51  51  98 SW2       30.09S
FRIONA 2NE       N/A     50  49  95 W5        30.12S
GOODLETT 3W      N/A     59  56  89 S6        30.03F
HART 3N          N/A     47  47  97 W2        30.10S
HEREFORD 2NW     N/A     50  48  94 W5        30.11S
MCLEAN 1E        N/A     56  55  94 SW5       30.05S
MEMPHIS 1NE      N/A     54  52  93 NW1       30.05S
MULESHOE 2SSW    N/A     48  48  97 W6        30.11S
OLTON 6S         N/A     49  48  95 SW2       30.09S
PALO DURO SP     N/A     58  55  91 SW2       30.11S
PAMPA 2E         N/A     59  56  91 SW9       30.06F
PLAINVIEW 1S     N/A     51  50  98 CALM      30.09S
SILVERTON 7ESE   N/A     51  50  97 SW7       30.09S
TULIA 2ENE       N/A     52  51  98 W5        30.09F
TURKEY 2WSW      N/A     58  56  94 SW7       30.05F
UMBARGER 3NNE    N/A     52  52  97 SW6       30.10F
$$

TXZ033>036-039>041-045>048-201000
TEXAS TECH WEST TEXAS MESONET/SOUTH PLAINS

CITY           SKY/WX    TMP DP  RH WIND       PRES   REMARKS
AIKEN 3WSW       N/A     50  50 100 W3        30.10S
ANDREWS 2NE      N/A     56  54  90 E3        30.09R
ANTON 6SSW       N/A     52  51  97 CALM      30.09F
BROWNFIELD 2S    N/A     53  51  94 S3        30.09S
DENVR CTY 7WNW   N/A     55  53  95 S1        30.09S
GAIL 2ESE        N/A     56  53  91 CALM      30.06S
LAMESA 2SE       N/A     55  53  95 CALM      30.08S
LEVELLAND 4S     N/A     51  49  93 CALM      30.09S
LUBBOCK 3WNW     N/A     53  51  92 S1        30.09F
MORTON 1ENE      N/A     51  50  98 W6        30.10S
ODONNELL 1N      N/A     55  52  90 SW2       30.08S
PLAINS 3N        N/A     51  49  95 W2        30.10S
RALLS 1SE        N/A     57  55  92 S3        30.10S
REESE CENTER     N/A     54  53  96 CALM      30.09F
SEMINOLE 2NNE    N/A     54  52  92 NE2       30.09R
SLATON 2NE       N/A     54  52  94 S6        30.08F
SNYDER 3E        N/A     59  56  88 SE8       30.05F
SUNDOWN 8SW      N/A     50  49  97 SW5       30.10R
TAHOKA 3NNE      N/A     54  52  95 SW3       30.08S
WOLFFORTH 6SSW   N/A     51  51  99 N2        30.10R
$$

TXZ031-032-036>038-042>044-201000-
TEXAS TECH WEST TEXAS MESONET/ROLLING PLAINS

CITY           SKY/WX    TMP DP  RH WIND       PRES   REMARKS
ASPERMONT 3NE    N/A     58  56  92 CALM      30.05S
FLUVANNA 3WNW    N/A     58  54  85 S7        30.07S
GRAHAM 5SSW      N/A     60  55  82 SW3       30.08S
GUTHRIE 10WSW    N/A     58  56  91 S5        30.04F
HASKELL 1NW      N/A     63  58  82 S5        30.04S
JAYTON 1SSE      N/A     60  56  87 S3        30.05S
KNOX CITY 3NW    N/A     63  58  83 S7        30.04F
LK A HENRY 1NW   N/A     62  56  80 SW1       30.06S
NORTHFIELD 1S    N/A     56  55  96 SW5       30.05S
ODELL 4ENE       N/A     62  60  91 S8        30.04S
PADUCAH 10SW     N/A     58  55  91 S7        30.04F
POST 1NE         N/A     59  55  88 SW3       30.07S
RRING SPRGS 3N   N/A     56  55  95 SW6       30.06F
SEYMOUR 3NW      N/A     62  58  87 S5        30.04F
SPUR 1W          N/A     53  50  91 NW1       30.05S
WEINERT 2NNE     N/A     62  59  92 S5        30.05S
WHITE RVR 6NE    N/A     60  56  85 SE2       30.07S
$$

TXZ052-054-060>062-072-078-127-140-154-169-201000-
TEXAS TECH WEST TEXAS MESONET/PERMIAN BASIN/
CONCHO VALLEY/BIG COUNTRY/EDWARDS PLATEAU

CITY           SKY/WX    TMP DP  RH WIND       PRES   REMARKS
COYANOSA 2N      N/A     59  56  89 NE3       30.04R
JUNCTION 1SSW    N/A     54  53  95 CALM      30.05F
MERTZON 3NNE     N/A     56  54  92 NE2       30.05F
SAN ANGELO 7NW   N/A     61  55  81 NE5       30.05F
STRLNG CT 4WSW   N/A     55  51  89 CALM      30.07S
ST LAWRNCE 5SW   N/A     56  55  97 E5        30.06R
SWEETWATR 11SW   N/A     62  58  87 S9        30.07S
WALL 1E          N/A     55  51  85 NE3       30.05F
$$

TXZ055-058-074-075-080-082-201000-
TEXAS TECH WEST TEXAS MESONET/FAR WEST/SOUTHWEST MOUNTAINS/TRANS PECOS

CITY           SKY/WX    TMP DP  RH WIND       PRES   REMARKS
PRSMN GAP BBNP   N/A     65  58  79 N13       30.00R
GUADLPE MTN NP   N/A     55  54  95 CALM      30.16S
$$